{"data":{"norad_id":65523,"intl_designator":"2025-200D","name":"STARLINK-35078","alt_names":[],"object_type":"PAYLOAD","status":"ACTIVE","operator":null,"country":"US","launch_date":"2025-09-06","launch_site_code":"AFWTR","launch_vehicle":null,"mission":null,"orbit_class":"UNKNOWN","rcs_meters":null,"size_class":null,"mass_kg":null,"dimensions":null,"purposes":["comms"],"wikipedia_slug":null,"has_3d_model":false,"image_url":null,"decayed_at":null,"tle_current":{"epoch":"2026-05-25T03:25:41.248128Z","epoch_age_seconds":73188,"freshness":"FRESH","line1":"1 65523U 25200D   26145.14283852  .00003184  00000+0  22463-3 0  9996","line2":"2 65523  97.4497 214.7688 0001446 207.2326 152.8825 15.05645620 40634","mean_motion":15.0564562,"eccentricity":0.0001446,"inclination_deg":97.4497,"raan_deg":214.7688,"arg_perigee_deg":207.2326,"mean_anomaly_deg":152.8825,"bstar":0.00022463,"rev_number":4063,"period_min":95.640035136555,"perigee_km":548.52284942163,"apogee_km":550.52632915325,"semimajor_km":6927.6615892874,"source":"CELESTRAK","updated_at":"2026-05-25T13:38:20.846667Z"}}}